| time (UTC) | temp C | wind direction | speed KPH | gust KPH | rain 1hr cm | rain 24hr cm | rain mn cm | humidity % | barometer mb |
| 20260509112025 | 3 | 62 | 4.8 | 0.0 | 0.00 | 0.00 | 0.00 | 60 | 1018.5 |
| 20260509105021 | 3 | 52 | 3.2 | 0.0 | 0.00 | 0.00 | 0.00 | 60 | 1017.9 |
| 20260509102018 | 4 | 61 | 3.2 | 0.0 | 0.00 | 0.00 | 0.00 | 59 | 1017.4 |
| 20260509095014 | 5 | 62 | 3.2 | 0.0 | 0.00 | 0.00 | 0.00 | 57 | 1016.9 |
| 20260509092010 | 6 | 51 | 6.4 | 0.0 | 0.00 | 0.00 | 0.00 | 54 | 1016.6 |
| 20260509085006 | 6 | 57 | 6.4 | 0.0 | 0.00 | 0.00 | 0.00 | 54 | 1016.9 |
| 20260509082002 | 5 | 71 | 4.8 | 0.0 | 0.00 | 0.00 | 0.00 | 56 | 1017.0 |
| 20260509074959 | 6 | 50 | 4.8 | 0.0 | 0.00 | 0.00 | 0.00 | 57 | 1017.0 |
| 20260509071956 | 6 | 61 | 4.8 | 0.0 | 0.00 | 0.00 | 0.00 | 54 | 1017.3 |
| 20260509064952 | 6 | 63 | 6.4 | 0.0 | 0.00 | 0.00 | 0.00 | 56 | 1017.5 |
| 20260509061948 | 7 | 53 | 3.2 | 0.0 | 0.00 | 0.00 | 0.00 | 54 | 1017.5 |
| 20260509054945 | 7 | 62 | 4.8 | 0.0 | 0.00 | 0.00 | 0.00 | 54 | 1017.6 |
| 20260509051942 | 7 | 80 | 1.6 | 0.0 | 0.00 | 0.00 | 0.00 | 54 | 1017.9 |
| 20260509044938 | 8 | 76 | 3.2 | 0.0 | 0.00 | 0.00 | 0.00 | 53 | 1017.7 |
| 20260509041935 | 8 | 54 | 4.8 | 0.0 | 0.00 | 0.00 | 0.00 | 53 | 1017.7 |
| 20260509034932 | 9 | 75 | 3.2 | 0.0 | 0.00 | 0.00 | 0.00 | 51 | 1017.7 |
| 20260509031929 | 10 | 54 | 4.8 | 0.0 | 0.00 | 0.00 | 0.00 | 48 | 1017.7 |
| 20260509024920 | 10 | 65 | 4.8 | 0.0 | 0.00 | 0.00 | 0.00 | 47 | 1017.5 |
| 20260509021917 | 10 | 61 | 6.4 | 0.0 | 0.00 | 0.00 | 0.00 | 47 | 1017.3 |
| 20260509014914 | 11 | 73 | 3.2 | 0.0 | 0.00 | 0.00 | 0.00 | 46 | 1016.4 |
| 20260509011821 | 12 | 55 | 4.8 | 0.0 | 0.00 | 0.00 | 0.00 | 43 | 1016.1 |
| 20260509004816 | 13 | 47 | 4.8 | 0.0 | 0.00 | 0.00 | 0.00 | 42 | 1016.0 |
| 20260509001813 | 14 | 65 | 4.8 | 0.0 | 0.00 | 0.00 | 0.00 | 39 | 1015.3 |
| 20260508234809 | 15 | 24 | 1.6 | 0.0 | 0.00 | 0.00 | 0.00 | 36 | 1014.9 |
| 20260508231806 | 17 | 290 | 0.0 | 0.0 | 0.00 | 0.00 | 0.00 | 31 | 1014.0 |
| 20260508224803 | 20 | 243 | 0.0 | 0.0 | 0.00 | 0.00 | 0.00 | 26 | 1013.2 |
| 20260508221800 | 21 | 265 | 6.4 | 0.0 | 0.00 | 0.00 | 0.00 | 24 | 1012.2 |
| 20260508214756 | 23 | 265 | 8.0 | 0.0 | 0.00 | 0.00 | 0.00 | 22 | 1011.4 |
| 20260508211753 | 24 | 293 | 1.6 | 0.0 | 0.00 | 0.00 | 0.00 | 19 | 1010.8 |
| 20260508204750 | 25 | 265 | 6.4 | 0.0 | 0.00 | 0.00 | 0.00 | 18 | 1010.3 |
| 20260508202642 | 26 | 267 | 6.4 | 0.0 | 0.00 | 0.00 | 0.00 | 17 | 1010.1 |
| 20260508195639 | 26 | 271 | 4.8 | 0.0 | 0.00 | 0.00 | 0.00 | 15 | 1010.4 |
| 20260508193751 | 27 | 257 | 6.4 | 0.0 | 0.00 | 0.00 | 0.00 | 15 | 1010.4 |
| 20260508190747 | 26 | 257 | 6.4 | 0.0 | 0.00 | 0.00 | 0.00 | 13 | 1010.7 |
| 20260508183744 | 26 | 259 | 6.4 | 0.0 | 0.00 | 0.00 | 0.00 | 14 | 1010.8 |
| 20260508180741 | 25 | 250 | 6.4 | 0.0 | 0.00 | 0.00 | 0.00 | 13 | 1011.4 |
| 20260508173737 | 25 | 258 | 3.2 | 0.0 | 0.00 | 0.00 | 0.00 | 14 | 1011.6 |
| 20260508170732 | 23 | 289 | 1.6 | 0.0 | 0.00 | 0.00 | 0.00 | 16 | 1012.7 |
| 20260508163729 | 22 | 329 | 0.0 | 0.0 | 0.00 | 0.00 | 0.00 | 19 | 1013.3 |
| 20260508160726 | 20 | 231 | 1.6 | 0.0 | 0.00 | 0.00 | 0.00 | 23 | 1014.1 |
| 20260508153722 | 18 | 155 | 0.0 | 0.0 | 0.00 | 0.00 | 0.00 | 26 | 1014.9 |
| 20260508150718 | 17 | 253 | 1.6 | 0.0 | 0.00 | 0.00 | 0.00 | 31 | 1016.1 |
| 20260508143715 | 17 | 247 | 0.0 | 0.0 | 0.00 | 0.00 | 0.00 | 38 | 1016.3 |
| 20260508140711 | 16 | 89 | 0.0 | 0.0 | 0.00 | 0.00 | 0.00 | 35 | 1016.7 |
| 20260508133707 | 12 | 74 | 3.2 | 0.0 | 0.00 | 0.00 | 0.00 | 51 | 1018.0 |
| 20260508130614 | 9 | 54 | 3.2 | 0.0 | 0.00 | 0.00 | 0.00 | 62 | 1018.6 |
| 20260508123610 | 6 | 60 | 3.2 | 0.0 | 0.00 | 0.00 | 0.00 | 74 | 1019.1 |
| 20260508120607 | 6 | 60 | 4.8 | 0.0 | 0.00 | 0.00 | 0.00 | 74 | 1018.8 |
| 20260508113603 | 6 | 63 | 3.2 | 0.0 | 0.00 | 0.00 | 0.00 | 73 | 1018.3 |